TimeEDT,TemperatureF,Dew PointF,Humidity,Sea Level PressureIn,VisibilityMPH,Wind Direction,Wind SpeedMPH,Gust SpeedMPH,PrecipitationIn,Events,Conditions,WindDirDegrees,DateUTC
12:53 AM,54.0,50.0,86,29.96,10.0,South,4.6,-,N/A,,Clear,190,2013-10-01 04:53:00
1:53 AM,48.0,46.0,93,29.97,3.0,South,3.5,-,N/A,,Clear,180,2013-10-01 05:53:00
2:53 AM,51.1,48.9,92,29.96,8.0,Calm,Calm,-,N/A,,Clear,0,2013-10-01 06:53:00
3:53 AM,53.1,50.0,89,29.97,9.0,SSW,3.5,-,N/A,,Clear,200,2013-10-01 07:53:00
4:53 AM,55.0,51.1,86,29.97,10.0,SSW,5.8,-,N/A,,Clear,200,2013-10-01 08:53:00
5:53 AM,55.9,51.1,84,29.97,10.0,SSW,5.8,-,N/A,,Clear,210,2013-10-01 09:53:00
6:53 AM,57.0,52.0,83,29.98,10.0,SW,4.6,-,N/A,,Clear,230,2013-10-01 10:53:00
7:53 AM,57.0,53.1,87,29.99,6.0,SSW,3.5,-,N/A,,Clear,210,2013-10-01 11:53:00
8:53 AM,62.1,57.9,86,29.99,5.0,SSW,8.1,-,N/A,,Clear,210,2013-10-01 12:53:00
9:09 AM,62.6,57.2,82,29.99,5.0,SW,12.7,18.4,N/A,,Partly Cloudy,220,2013-10-01 13:09:00
9:20 AM,60.8,57.2,88,30.00,3.0,SW,8.1,18.4,N/A,,Mostly Cloudy,230,2013-10-01 13:20:00
9:53 AM,61.0,57.9,90,30.00,3.0,SSW,10.4,-,N/A,,Overcast,200,2013-10-01 13:53:00
10:53 AM,63.0,59.0,87,30.01,5.0,SW,10.4,-,N/A,,Overcast,220,2013-10-01 14:53:00
11:49 AM,68.0,60.8,78,29.99,8.0,SW,10.4,-,N/A,,Overcast,220,2013-10-01 15:49:00
11:53 AM,66.9,59.0,76,29.99,8.0,SW,10.4,-,N/A,,Overcast,220,2013-10-01 15:53:00
12:30 PM,71.6,60.8,69,29.97,10.0,SSW,8.1,16.1,N/A,,Scattered Clouds,210,2013-10-01 16:30:00
12:53 PM,72.0,60.1,66,29.97,10.0,SW,12.7,-,N/A,,Partly Cloudy,220,2013-10-01 16:53:00
1:53 PM,75.9,60.1,58,29.94,10.0,SW,12.7,20.7,N/A,,Partly Cloudy,230,2013-10-01 17:53:00
2:37 PM,77.0,60.8,57,29.94,10.0,WSW,18.4,23.0,N/A,,Mostly Cloudy,240,2013-10-01 18:37:00
2:44 PM,77.0,59.0,54,29.94,10.0,WSW,13.8,23.0,N/A,,Mostly Cloudy,250,2013-10-01 18:44:00
2:53 PM,75.0,59.0,57,29.93,10.0,WSW,16.1,-,N/A,,Mostly Cloudy,240,2013-10-01 18:53:00
3:53 PM,75.9,57.9,54,29.92,10.0,SSW,16.1,21.9,N/A,,Partly Cloudy,210,2013-10-01 19:53:00
4:53 PM,75.0,59.0,57,29.92,10.0,WSW,16.1,23.0,N/A,,Scattered Clouds,240,2013-10-01 20:53:00
5:53 PM,72.0,57.9,61,29.93,10.0,WSW,15.0,19.6,N/A,,Mostly Cloudy,240,2013-10-01 21:53:00
6:53 PM,70.0,57.9,65,29.91,10.0,SW,10.4,24.2,N/A,,Clear,220,2013-10-01 22:53:00
7:53 PM,66.9,57.9,73,29.94,10.0,SW,8.1,-,N/A,,Partly Cloudy,230,2013-10-01 23:53:00
8:53 PM,66.0,59.0,78,29.94,10.0,SSW,5.8,-,N/A,,Clear,210,2013-10-02 00:53:00
9:53 PM,64.9,59.0,81,29.94,10.0,SSW,5.8,-,N/A,,Clear,210,2013-10-02 01:53:00
10:53 PM,64.0,57.9,80,29.94,10.0,SSW,8.1,-,N/A,,Clear,210,2013-10-02 02:53:00
11:53 PM,64.9,59.0,81,29.94,10.0,SSW,8.1,-,N/A,,Clear,210,2013-10-02 03:53:00